Find Starlink 2088

NORAD ID: 47371 Int'l Des: 2021-005 Owner: SPXS Country: US Constellation: starlink operational
LEOCIRCULARSTARLINK_TYPE

Live Position

Loading 3D Globe...

About Starlink 2088

Description loading...

Upcoming Passes

Passes for default location (London). Set your location on the main map for personalized predictions.

Altitude History

Loading altitude history...

Two-Line Element Set

1 47371U 21005Y 26107.00002315 .00000911 00000-0 43971-4 0 9996
2 47371 53.1484 248.1136 0001530 86.1260 153.2153 15.29312668 5802
Epoch: Apr 17, 2026 • Age: 3 hours

Current Status

Altitude 479.6 km
Velocity 7.63 km/s
Sub-Earth Point -4.37°S, 177.97°W
Launch Date Jan 20, 2021
Age 5.2 years
Type internet

Technical Details

Classification Payload
Mass 260.00 kg
Dry Mass 248.00 kg
Total Mass 260.00 kg
Length 0.20 m
Diameter 2.80 m
Span 9.00 m
Shape Box + pan
Manufacturer SPXS
Bus Type Starlink
Phase Status In Orbit
Owner/State SPXS/US

Most Searched